Tracking 19644 objects as of 24-Apr-2019
HD Live streaming from Space Station
objects crossing your sky now

YUNHAI 2 5

Track YUNHAI 2 5 now!
10-day predictions


NORAD ID: 43913
Int'l Code: 2018-112E
Perigee: 803.2 km
Apogee: 810.7 km
Inclination: 50.0 °
Period: 100.9 minutes
Semi major axis: 7177 km
RCS: Unknown
Launch date: December 29, 2018
Source: People's Republic of China (PRC)
Launch site: Jiuquan Satellite Launch Center, China (JSC)
aabbcc
Your satellite tracking list
Your tracking list is empty




NASA's NSSDC Master Catalog

Two Line Element Set (TLE):
1 43913U 18112E   19113.73462122 -.00000036  00000-0  50421-4 0  9991
2 43913  50.0099  75.2374 0005256 202.4821 157.5857 14.27580159 16209
Source of the keplerian elements: AFSPC